SCP
0 0 0 0 0 0 0 0 0 0 0 0 0 0 0 0 0 0 0 0 0 0 0 0 0 0 0 0 0 0 0 0 0 0 0 0 0 0 0 0 0 0 0
0 0 0 0 0 0 0 0 0 0 0 0 0 0 0 0 0 0 0 0 0 0 0 0 0 0 0 0 0 0 0 0 0 0 0 0 0 0 0 0 0 0 0
0 0 0 0 0 0 0 0 0 0 0 0 0 0 0 0 0 0 0 0 0 0 0 0 0 0 0 0 0 0 0 0 0 0 0 0 0 0 0 0 0 0 0
0 0 0 0 0 0 0 0 0 0 0 0 0 0 0 0 0 0 0 0 0 0 0 0 0 0 0 0 0 0 0 0 0 0 0 0 0 0 0 0 0 0 0
0 0 0 0 0 0 0 0 0 0 0 0 0 0 0 0 0 0 0 0 0 0 0 0 0 0 0 0 0 0 0 0 0 0 0 0 0 0 0 0 0 0 0
0 0 0 0 0 0 0 0 0 0 0 0 0 0 0 0 0 0 0 0 0 0 0 0 0 0 0 0 0 0 0 0 0 0 0 0 0 0 0 0 0 0 0
0 0 0 0 0 0 0 0 0 0 0 0 0 0 0 0 0 0 0 0 0 0 0 0 0 0 0 0 0 0 0 0 0 0 0 0 0 0 0 0 0 0 0
0 0 0 0 0 0 0 0 0 0 0 0 0 0 0 0 0 0 0 0 0 0 0 0 0 0 0 0 0 0 0 0 0 0 0 0 0 0 0 0 0 0 0
0 0 0 0 0 0 0 0 0 0 0 0 0 0 0 0 0 0 0 0 0 0 0 0 0 0 0 0 0 0 0 0 0 0 0 0 0 0 0 0 0 0 0
0 0 0 0 0 0 0 0 0 0 0 0 0 0 0 0 0 0 0 0 0 0 0 0 0 0 0 0 0 0 0 0 0 0 0 0 0 0 0 0 0 0 0
0 0 0 0 0 0 0 0 0 0 0 0 0 0 0 0 0 0 0 0 0 0 0 0 0 0 0 0 0 0 0 0 0 0 0 0 0 0 0 0 0 0 0
0 0 0 0 0 0 0 0 0 0 0 0 0 0 0 0 0 0 0 0 0 0 0 0 0 0 0 0 0 0 0 0 0 0 0 0 0 0 0 0 0 0 0
0 0 0 0 0 0 0 0 0 0 0 0 0 0 0 0 0 0 0 0 0 0 0 0 0 0 0 0 0 0 0 0 0 0 0 0 0 0 0 0 0 0 0
0 0 0 0 0 0 0 0 0 0 0 0 0 0 0 0 0 0 0 0 0 0 0 0 0 0 0 0 0 0 0 0 0 0 0 0 0 0 0 0 0 0 0
0 0 0 0 0 0 0 0 0 0 0 0 0 0 0 0 0 0 0 0 0 0 0 0 0 0 0 0 0 0 0 0 0 0 0 0 0 0 0 0 0 0 0
0 0 0 0 0 0 0 0 0 0 0 0 0 0 0 0 0 0 0 0 0 0 0 0 0 0 0 0 0 0 0 0 0 0 0 0 0 0 0 0 0 0 0
0 0 0 0 0 0 0 0 0 0 0 0 0 0 0 0 0 0 0 0 0 0 0 0 0 0 0 0 0 0 0 0 0 0 0 0 0 0 0 0 0 0 0
0 0 0 0 0 0 0 0 0 0 0 0 0 0 0 0 0 0 0 0 0 0 0 0 0 0 0 0 0 0 0 0 0 0 0 0 0 0 0 0 0 0 0
0 0 0 0 0 0 0 0 0 0 0 0 0 0 0 0 0 0 0 0 0 0 0 0 0 0 0 0 0 0 0 0 0 0 0 0 0 0 0 0 0 0 0
0 0 0 0 0 0 0 0 0 0 0 0 0 0 0 0 0 0 0 0 0 0 0 0 0 0 0 0 0 0 0 0 0 0 0 0 0 0 0 0 0 0 0
0 0 0 0 0 0 0 0 0 0 0 0 0 0 0 0 0 0 0 0 0 0 0 0 0 0 0 0 0 0 0 0 0 0 0 0 0 0 0 0 0 0 0
0 0 0 0 0 0 0 0 0 0 0 0 0 0 0 0 0 0 0 0 0 0 0 0 0 0 0 0 0 0 0 0 0 0 0 0 0 0 0 0 0 0 0
0 0 0 0 0 0 0 0 0 0 0 0 0 0 0 0 0 0 0 0 0 0 0 0 0 0 0 0 0 0 0 0 0 0 0 0 0 0 0 0 0 0 0
0 0 0 0 0 0 0 0 0 0 0 0 0 0 0 0 0 0 0 0 0 0 0 0 0 0 0 0 0 0 0 0 0 0 0 0 0 0 0 0 0 0 0
0 0 0 0 0 0 0 0 0 0 0 0 0 0 0 0 0 0 0 0 0 0 0 0 0 0 0 0 0 0 0 0 0 0 0 0 0 0 0 0 0 0 0
0 0 0 0 0 0 0 0 0 0 0 0 0 0 0 0 0 0 0 0 0 0 0 0 0 0 0 0 0 0 0 0 0 0 0 0 0 0 0 0 0 0 0
Wind_Speed
1 1 0 0 0 0 0 0 0 0 1 1 1 0 1 1 0 1 1 0 1 2 2 3 3 3 3 4 4 4 4 4 4 5 6 6 6 6 6 6 7 6 6
1 1 1 0 1 0 0 0 1 0 1 1 1 1 1 1 1 0 1 0 1 2 3 3 4 4 4 4 4 4 4 4 5 5 6 6 7 7 7 7 7 7 7
1 1 1 0 1 0 0 1 1 1 1 1 1 1 1 1 1 1 0 1 1 2 3 3 4 4 5 5 5 4 5 5 5 6 6 7 7 7 7 7 7 7 7
1 1 1 1 1 0 0 0 0 0 1 1 1 1 1 1 2 2 1 1 1 1 1 3 4 5 5 5 5 5 5 5 6 6 7 7 7 8 8 8 8 8 8
0 1 1 1 0 0 0 0 0 0 1 1 1 1 1 1 2 2 1 1 1 0 0 2 3 4 4 5 5 6 6 6 6 7 7 7 7 8 8 8 8 9 9
0 1 1 1 0 0 0 0 0 1 0 1 2 2 2 2 2 2 2 1 1 1 1 0 1 2 4 4 5 6 6 6 7 7 8 7 7 7 8 8 9 9 9
1 1 1 1 1 1 1 1 1 0 1 1 1 2 2 3 2 2 1 1 1 1 1 1 0 0 1 3 5 6 7 7 7 7 7 7 7 7 8 8 9 9 9
1 1 1 1 1 1 1 1 1 1 1 0 0 1 2 2 2 2 1 1 1 1 1 1 1 1 1 1 3 6 7 8 8 7 7 7 8 8 8 9 9 10 9
2 1 1 1 1 1 1 1 1 2 1 1 1 1 1 2 2 2 2 1 1 1 2 1 1 1 1 1 1 3 6 7 8 8 7 7 8 9 9 9 10 10 10
1 2 2 1 1 1 1 1 1 1 1 1 1 1 1 1 1 2 2 2 2 2 2 1 1 2 1 1 2 3 5 7 8 8 8 8 9 9 10 10 10 10 10
2 1 1 1 2 2 2 2 1 1 1 2 2 1 2 1 1 2 3 2 2 2 2 2 2 2 2 2 2 2 4 6 7 7 8 9 9 10 10 11 11 11 11
1 2 2 1 2 2 2 2 2 2 2 2 2 1 1 2 2 2 2 2 3 3 2 2 2 2 2 1 2 3 5 6 7 7 8 9 10 10 11 11 11 11 11
2 2 2 2 2 2 2 2 2 2 3 2 2 2 2 2 1 2 2 3 3 3 2 2 2 1 1 1 2 4 5 6 7 8 9 9 10 10 11 11 12 11 12
3 3 3 2 2 2 2 2 2 2 2 2 3 2 2 2 2 2 2 2 3 3 2 3 2 1 1 1 3 5 3 7 8 8 9 9 9 10 11 11 11 11 11
2 3 3 3 2 2 2 2 2 2 2 2 3 3 2 2 2 2 2 2 2 3 4 3 2 2 2 2 4 2 2 6 8 8 9 9 10 10 10 11 11 10 10
2 3 3 3 3 3 3 2 2 2 2 2 2 3 3 2 2 2 2 2 2 3 4 3 2 2 3 3 4 2 3 7 8 9 9 10 10 10 11 11 11 10 10
3 3 3 3 3 3 3 3 3 3 3 3 3 3 4 3 3 2 2 2 3 3 5 4 2 2 2 3 3 2 3 3 4 9 10 10 10 11 10 11 11 10 10
3 3 3 3 4 4 4 4 4 4 4 4 4 4 4 3 4 3 3 3 3 3 4 5 3 2 3 3 2 3 3 4 3 8 10 10 10 10 10 11 10 9 9
3 3 3 4 4 4 4 4 4 4 5 5 4 5 5 4 5 3 3 3 3 3 3 3 4 2 2 2 2 3 4 3 4 6 8 9 10 11 11 11 10 8 9
3 3 3 3 4 4 4 4 4 4 5 5 4 5 5 5 5 5 4 4 3 3 3 3 3 3 2 2 2 2 4 3 4 5 5 6 9 10 10 10 9 8 8
3 3 3 3 3 3 4 4 4 4 5 4 5 5 5 6 7 6 4 4 4 3 3 3 3 3 2 2 2 2 4 4 4 3 3 4 4 4 5 7 7 8 8
2 2 3 3 3 3 5 6 4 4 4 5 5 5 5 6 6 8 8 7 6 5 4 4 4 4 4 3 3 3 3 3 4 2 3 5 3 4 4 3 6 7 7
2 3 3 3 4 4 6 7 7 4 4 4 5 4 4 4 6 5 6 7 7 8 7 5 5 5 4 4 3 3 3 4 4 3 3 5 3 4 4 4 7 6 6
2 3 3 3 3 5 7 7 7 5 4 5 5 4 4 4 4 4 4 5 5 5 6 5 5 5 4 4 4 5 5 4 4 3 2 3 3 3 4 3 5 5 5
2 3 3 3 3 4 7 7 6 3 4 4 4 4 4 4 6 6 5 5 5 5 5 6 6 6 7 7 5 2 2 3 4 3 1 2 2 3 3 3 3 4 5
3 3 3 3 3 4 6 7 6 3 3 3 4 4 6 6 7 7 5 5 5 5 3 4 4 5 4 4 5 3 3 3 3 3 1 1 1 2 3 2 2 2 2
Wind_Direction
117 86 71 49 54 101 124 266 284 314 300 288 283 301 288 294 305 126 118 31 304 292 286 296 291 294 301 304 310 310 314 320 322 325 327 324 320 320 322 323 323 323 317
117 111 76 47 341 26 32 315 287 281 270 283 291 294 301 300 290 184 156 198 315 294 283 288 291 288 293 300 309 318 313 315 318 320 322 322 321 314 311 311 313 315 316
119 121 123 97 290 285 38 348 334 332 301 299 304 302 296 298 293 282 191 179 222 274 283 291 297 292 294 299 305 313 316 313 314 314 315 317 319 316 311 307 309 309 309
141 132 138 195 262 344 95 262 288 307 307 300 299 287 273 282 281 270 245 201 205 227 263 286 290 286 294 299 304 310 313 311 312 308 307 309 311 312 311 308 309 309 306
159 150 169 187 207 70 254 272 319 284 285 304 303 299 286 263 270 277 262 240 230 217 226 272 282 283 289 298 306 311 312 306 305 306 305 305 303 306 309 310 309 307 306
165 140 156 167 164 172 230 227 283 324 312 306 310 308 290 269 258 253 257 256 245 245 263 260 244 279 282 293 303 306 309 305 303 303 303 302 302 304 308 309 308 310 307
175 162 163 179 175 195 215 205 201 294 322 321 337 309 289 265 242 236 238 246 245 239 229 251 229 233 271 287 296 299 303 305 300 300 304 305 306 308 309 310 310 311 308
173 186 173 186 185 184 229 227 195 198 274 286 213 313 311 306 290 250 231 233 241 233 235 246 240 256 260 251 291 303 305 306 302 300 301 306 308 306 307 307 310 310 308
174 192 195 180 182 181 211 224 200 198 216 251 222 172 212 250 306 281 242 237 241 240 237 226 228 253 255 250 261 294 306 306 304 303 302 305 306 306 304 303 305 307 309
177 191 198 187 182 193 209 222 214 222 193 223 252 237 226 233 243 297 290 259 254 256 255 258 244 241 226 223 262 288 299 302 303 302 305 308 306 304 304 307 306 304 305
179 190 198 192 198 204 204 206 214 230 215 212 217 235 250 269 248 234 276 287 289 267 261 258 245 244 227 216 224 256 292 302 303 304 306 305 305 305 305 304 307 308 306
188 199 203 203 213 212 209 205 206 218 227 226 222 217 214 223 237 234 255 275 280 277 271 264 254 247 250 228 255 284 292 297 299 303 303 302 303 302 302 303 303 305 306
196 210 207 210 218 225 216 204 205 222 226 226 221 225 225 232 232 235 253 273 281 281 266 260 247 239 257 244 257 283 284 289 294 297 298 298 299 300 297 296 300 299 301
203 197 202 213 218 218 221 213 207 221 224 226 235 227 230 235 228 222 233 250 281 281 262 259 277 244 254 257 270 285 272 281 287 290 294 294 296 298 297 295 298 297 298
204 191 194 206 214 211 212 213 223 224 216 223 228 228 230 236 229 227 234 231 233 270 273 253 266 264 267 258 266 261 260 276 289 290 291 292 293 295 296 297 296 293 295
197 193 198 204 207 208 210 213 224 233 222 228 226 231 236 234 229 221 225 242 237 246 265 258 262 270 273 282 283 279 267 287 286 287 288 291 292 292 291 295 293 290 291
199 203 205 205 206 209 214 214 219 225 227 230 234 232 237 236 231 223 224 234 241 242 260 278 279 281 265 274 285 273 275 273 274 282 287 290 291 290 290 293 291 289 288
208 210 213 210 213 215 216 219 223 226 226 228 229 228 236 240 238 230 226 231 238 243 251 270 279 280 269 263 270 280 286 284 277 279 285 289 289 289 290 294 289 289 290
212 211 213 216 217 217 218 223 225 231 230 229 227 224 228 229 235 233 233 231 237 250 252 258 274 282 288 287 294 290 286 282 282 282 286 288 289 290 289 292 285 286 287
221 218 217 221 222 222 222 226 227 233 233 233 231 226 223 224 226 227 231 228 230 241 250 256 267 277 283 289 287 297 300 290 290 293 288 294 295 293 288 288 286 286 285
236 228 222 227 230 226 227 230 228 234 234 235 236 232 228 225 228 229 232 225 221 228 241 248 258 273 273 287 281 285 289 301 294 285 296 295 295 291 289 282 282 287 289
245 238 232 231 237 241 244 242 242 237 235 233 239 240 235 226 233 241 244 242 234 230 234 234 246 252 262 269 277 279 290 301 296 294 305 296 293 289 287 275 284 287 286
241 242 242 240 246 247 249 250 250 240 234 234 236 240 244 236 231 233 239 246 249 249 246 236 237 245 252 255 261 270 274 279 281 287 296 291 292 285 285 288 292 290 295
236 239 242 243 251 250 251 254 254 241 237 238 236 236 238 240 229 223 227 235 240 244 248 241 234 241 250 248 237 249 262 279 284 277 270 279 287 289 295 290 295 296 303
246 250 250 249 251 255 256 258 254 240 237 242 241 240 238 240 237 227 224 232 244 252 259 262 269 270 274 275 272 263 271 281 288 284 255 263 283 303 294 280 297 314 318
255 259 265 257 248 254 261 263 258 236 235 241 246 245 245 245 246 233 223 223 237 244 245 257 264 271 265 265 267 243 235 250 272 275 243 262 278 326 313 295 292 302 302